FW8483 Weather Reports


Display with metric or nautical units.
time (UTC)temp
F
wind
direction
speed
MPH
gust
MPH
rain 1hr
in
rain 24hr
in
rain mn
in
humidity
%
barometer
mb
20260904094010 77 11 0.0 2.0 0.00 0.00 0.00 96 1014.2
20260904093514 77 11 0.0 0.0 0.00 0.00 0.00 96 1014.2
20260904093051 77 11 0.0 0.0 0.00 0.00 0.00 96 1014.1
20260904092516 77 58 0.0 0.0 0.00 0.00 0.00 96 1014.1
20260904092015 77 58 0.0 0.0 0.00 0.00 0.00 96 1014.1
20260904091534 77 58 0.0 2.0 0.00 0.00 0.00 96 1014.1
20260904091015 77 59 0.0 2.0 0.00 0.00 0.00 96 1014.1
20260904090516 77 348 0.0 0.0 0.00 0.00 0.00 96 1014.1
20260904090014 76 348 0.0 0.0 0.00 0.00 0.00 96 1014.0
20260904085506 76 348 0.0 0.0 0.00 0.00 0.00 96 1014.0
20260904085008 76 348 0.0 0.0 0.00 0.00 0.00 95 1014.1
20260904084524 77 348 0.0 0.0 0.00 0.00 0.00 96 1014.0
20260904084010 77 348 0.0 0.0 0.00 0.00 0.00 96 1013.9
20260904083513 77 13 0.0 0.0 0.00 0.00 0.00 96 1013.9
20260904083026 77 22 0.0 0.0 0.00 0.00 0.00 96 1013.9
20260904082515 77 5 0.0 0.0 0.00 0.00 0.00 96 1013.9
20260904082011 77 5 0.0 0.0 0.00 0.00 0.00 96 1013.8
20260904081530 77 5 0.0 0.0 0.00 0.00 0.00 96 1013.8
20260904081017 77 5 0.0 0.0 0.00 0.00 0.00 96 1013.7
20260904080516 77 5 0.0 0.0 0.00 0.00 0.00 95 1013.7
20260904080034 77 5 0.0 0.0 0.00 0.00 0.00 95 1013.6
20260904075518 77 5 0.0 0.0 0.00 0.00 0.00 95 1013.6
20260904075010 77 5 0.0 0.0 0.00 0.00 0.00 95 1013.7
20260904074521 77 5 0.0 0.0 0.00 0.00 0.00 95 1013.8
20260904074009 77 5 0.0 0.0 0.00 0.00 0.00 95 1013.9
20260904073511 77 5 0.0 0.0 0.00 0.00 0.00 95 1013.9
20260904073048 77 5 0.0 0.0 0.00 0.00 0.00 95 1013.9
20260904072511 77 5 0.0 0.0 0.00 0.00 0.00 95 1013.9
20260904072014 77 5 0.0 0.0 0.00 0.00 0.00 95 1014.0
20260904071535 77 5 0.0 0.0 0.00 0.00 0.00 95 1014.0
20260904071016 77 5 0.0 0.0 0.00 0.00 0.00 95 1014.0
20260904070514 77 5 0.0 0.0 0.00 0.00 0.00 95 1014.0
20260904070033 77 5 0.0 0.0 0.00 0.00 0.00 95 1014.0
20260904065519 77 9 0.0 0.0 0.00 0.00 0.00 95 1014.0
20260904065017 77 5 0.0 0.0 0.00 0.00 0.00 95 1014.1
20260904064532 77 5 0.0 0.0 0.00 0.00 0.00 95 1014.1
20260904064009 77 5 0.0 0.0 0.00 0.00 0.00 95 1014.2
20260904063509 77 5 0.0 1.0 0.00 0.00 0.00 95 1014.3
20260904063026 77 13 0.0 1.0 0.00 0.00 0.00 95 1014.3
20260904062513 77 331 0.0 0.0 0.00 0.00 0.00 95 1014.4
20260904062013 78 331 0.0 0.0 0.00 0.00 0.00 95 1014.4
20260904061531 78 331 0.0 0.0 0.00 0.00 0.00 95 1014.3
20260904061014 78 331 0.0 0.0 0.00 0.00 0.00 95 1014.4
20260904060514 78 331 0.0 0.0 0.00 0.00 0.00 95 1014.5
20260904060032 78 331 0.0 0.0 0.00 0.00 0.00 95 1014.5
20260904055521 78 331 0.0 0.0 0.00 0.00 0.00 95 1014.6
20260904055008 78 331 0.0 0.0 0.00 0.00 0.00 95 1014.7
20260904054517 78 331 0.0 0.0 0.00 0.00 0.00 95 1014.6
20260904054007 78 331 0.0 0.0 0.00 0.00 0.00 94 1014.6
20260904053510 78 331 0.0 0.0 0.00 0.00 0.00 94 1014.6
20260904053027 78 331 0.0 0.0 0.00 0.00 0.00 94 1014.6
20260904052512 78 311 0.0 0.0 0.00 0.00 0.00 94 1014.7
20260904052003 78 186 0.0 0.0 0.00 0.00 0.00 94 1014.8
20260904051506 78 186 0.0 0.0 0.00 0.00 0.00 94 1014.8
20260904051002 78 186 0.0 0.0 0.00 0.00 0.00 94 1014.7
20260904050502 78 186 0.0 0.0 0.00 0.00 0.00 94 1014.7
20260904050008 78 186 0.0 0.0 0.00 0.00 0.00 94 1014.8
20260904045504 78 186 0.0 0.0 0.00 0.00 0.00 93 1015.0
20260904045004 78 186 0.0 0.0 0.00 0.00 0.00 93 1014.9
20260904044514 78 186 0.0 0.0 0.00 0.00 0.00 93 1014.9
20260904044008 78 186 0.0 0.0 0.00 0.00 0.00 93 1014.9
20260904043506 78 186 0.0 0.0 0.00 0.00 0.00 93 1014.9
20260904043021 78 186 0.0 0.0 0.00 0.00 0.00 93 1015.0
20260904042511 79 186 0.0 0.0 0.00 0.00 0.00 92 1014.9
20260904042014 79 186 0.0 0.0 0.00 0.00 0.00 92 1014.9
20260904041527 79 186 0.0 0.0 0.00 0.00 0.00 92 1014.9
20260904041003 79 186 0.0 0.0 0.00 0.00 0.00 92 1014.9
20260904040502 79 186 0.0 0.0 0.00 0.00 0.00 92 1015.0
20260904040007 79 186 0.0 0.0 0.00 0.00 0.00 92 1015.1
20260904035504 79 186 0.0 0.0 0.00 0.00 0.00 91 1015.0
20260904035004 79 186 0.0 0.0 0.00 0.00 0.00 91 1015.0
20260904034516 79 186 0.0 0.0 0.00 0.00 0.00 92 1015.0
20260904034008 79 186 0.0 0.0 0.00 0.00 0.00 92 1015.1
20260904033508 79 186 0.0 0.0 0.00 0.00 0.00 92 1015.0
20260904033030 79 186 0.0 0.0 0.00 0.00 0.00 92 1015.1
20260904032509 79 186 0.0 0.0 0.00 0.00 0.00 92 1015.1
20260904032011 79 186 0.0 0.0 0.00 0.00 0.00 92 1015.3
20260904031525 79 186 0.0 0.0 0.00 0.00 0.00 92 1015.3
20260904031013 79 186 0.0 0.0 0.00 0.00 0.00 92 1015.3
20260904030518 79 186 0.0 2.0 0.00 0.00 0.00 92 1015.3
20260904030003 79 186 0.0 2.0 0.00 0.00 0.00 92 1015.3
20260904025503 79 166 0.0 0.0 0.00 0.00 0.00 92 1015.2
20260904025003 79 166 0.0 0.0 0.00 0.00 0.00 91 1015.1
20260904024508 79 128 0.0 0.0 0.00 0.00 0.00 91 1015.0
20260904024004 79 128 0.0 0.0 0.00 0.00 0.00 91 1014.9
20260904023507 79 128 0.0 0.0 0.00 0.00 0.00 92 1014.9
20260904023016 79 128 0.0 3.0 0.00 0.00 0.00 91 1014.8
20260904022509 79 169 0.0 3.0 0.00 0.00 0.00 91 1014.7
20260904022009 79 157 0.0 0.0 0.00 0.00 0.00 91 1014.7
20260904021527 80 163 0.0 0.0 0.00 0.00 0.00 91 1014.7
20260904021011 80 134 0.0 0.0 0.00 0.00 0.00 91 1014.7
20260904020512 80 134 0.0 0.0 0.00 0.00 0.00 91 1014.7
20260904020030 80 134 0.0 0.0 0.00 0.00 0.00 91 1014.7
20260904015513 80 134 0.0 0.0 0.00 0.00 0.00 91 1014.7
20260904015006 80 134 0.0 0.0 0.00 0.00 0.00 91 1014.6
20260904014508 80 134 0.0 0.0 0.00 0.00 0.00 90 1014.6
20260904014002 80 134 0.0 0.0 0.00 0.00 0.00 90 1014.5
20260904013503 80 134 0.0 0.0 0.00 0.00 0.00 90 1014.4
20260904013018 80 134 0.0 0.0 0.00 0.00 0.00 90 1014.4
20260904012507 80 134 0.0 0.0 0.00 0.00 0.00 90 1014.3
20260904012008 80 134 0.0 0.0 0.00 0.00 0.00 90 1014.2
20260904011523 80 134 0.0 0.0 0.00 0.00 0.00 89 1014.2
20260904011010 80 134 0.0 0.0 0.00 0.00 0.00 89 1014.1
20260904010512 81 134 0.0 0.0 0.00 0.00 0.00 89 1014.1
20260904010029 81 134 0.0 0.0 0.00 0.00 0.00 89 1014.1
20260904005519 81 134 0.0 0.0 0.00 0.00 0.00 89 1014.1
20260904005015 81 134 0.0 0.0 0.00 0.00 0.00 88 1014.1
20260904004531 81 134 0.0 0.0 0.00 0.00 0.00 87 1014.0
20260904004003 81 134 0.0 0.0 0.00 0.00 0.00 87 1014.0
20260904003503 81 117 0.0 0.0 0.00 0.00 0.00 87 1013.9
20260904003012 82 117 0.0 0.0 0.00 0.00 0.00 86 1013.8
20260904002507 82 117 0.0 0.0 0.00 0.00 0.00 86 1013.7
20260904002008 82 117 0.0 0.0 0.00 0.00 0.00 85 1013.7
20260904001521 82 117 0.0 0.0 0.00 0.00 0.00 85 1013.6
20260904001008 82 123 0.0 0.0 0.00 0.00 0.00 84 1013.7
20260904000515 83 134 0.0 0.0 0.00 0.00 0.00 84 1013.6
20260904000027 83 134 0.0 0.0 0.00 0.00 0.00 83 1013.4
20260903235514 83 134 0.0 0.0 0.00 0.00 0.00 83 1013.3
20260903235012 83 134 0.0 0.0 0.00 0.00 0.00 83 1013.2
20260903234527 83 134 0.0 4.0 0.00 0.00 0.00 82 1013.0
20260903234016 83 122 0.0 4.0 0.00 0.00 0.00 82 1013.1
20260903233507 83 138 2.0 4.0 0.00 0.00 0.00 81 1013.1
20260903233007 83 110 1.0 5.0 0.00 0.00 0.00 81 1013.2
20260903232506 84 114 3.0 6.0 0.00 0.00 0.00 80 1013.3
20260903232007 84 111 3.0 7.0 0.00 0.00 0.00 79 1013.2
20260903231517 84 103 3.0 7.0 0.00 0.00 0.00 79 1013.2
20260903231010 84 123 4.0 7.0 0.00 0.00 0.00 78 1013.2
20260903230509 85 113 3.0 7.0 0.00 0.00 0.00 76 1013.1
20260903230042 85 105 5.0 9.0 0.00 0.00 0.00 75 1013.0
20260903225518 86 103 4.0 9.0 0.00 0.00 0.00 73 1013.1
20260903225013 87 126 5.0 8.0 0.00 0.00 0.00 72 1013.1
20260903224530 87 119 0.0 3.0 0.00 0.00 0.00 70 1013.0
20260903224015 88 123 0.0 4.0 0.00 0.00 0.00 70 1013.2
20260903223517 88 109 1.0 6.0 0.00 0.00 0.00 69 1013.2
20260903223032 89 101 3.0 6.0 0.00 0.00 0.00 67 1013.2
20260903222504 89 89 2.0 8.0 0.00 0.00 0.00 67 1013.2
20260903222003 89 62 1.0 8.0 0.00 0.00 0.00 67 1013.1
20260903221513 89 33 3.0 8.0 0.00 0.00 0.00 67 1013.3
20260903221006 89 66 1.0 4.0 0.00 0.00 0.00 70 1013.4
20260903220510 89 74 0.0 4.0 0.00 0.00 0.00 70 1013.4
20260903220023 89 42 2.0 3.0 0.00 0.00 0.00 70 1013.4
20260903215512 88 105 0.0 3.0 0.00 0.00 0.00 71 1013.4
20260903215012 88 103 2.0 2.0 0.00 0.00 0.00 69 1013.5
20260903214537 89 113 1.0 5.0 0.00 0.00 0.00 69 1013.4
20260903214015 89 94 1.0 6.0 0.00 0.00 0.00 67 1013.3
20260903213514 89 72 3.0 6.0 0.00 0.00 0.00 66 1013.4
20260903213029 89 38 1.0 5.0 0.00 0.00 0.00 65 1013.4
20260903212514 89 41 2.0 5.0 0.00 0.00 0.00 65 1013.5
20260903212017 90 66 2.0 5.0 0.00 0.00 0.00 65 1013.5
20260903211511 90 21 1.0 4.0 0.00 0.00 0.00 65 1013.4
20260903211006 90 33 1.0 4.0 0.00 0.00 0.00 65 1013.4
20260903210506 90 40 1.0 3.0 0.00 0.00 0.00 65 1013.5
20260903210020 90 22 0.0 4.0 0.00 0.00 0.00 64 1013.5
20260903205508 90 351 2.0 4.0 0.00 0.00 0.00 64 1013.6
20260903205010 89 89 2.0 5.0 0.00 0.00 0.00 64 1013.6
20260903204526 90 19 1.0 5.0 0.00 0.00 0.00 64 1013.5
20260903204015 90 35 2.0 5.0 0.00 0.00 0.00 62 1013.6
20260903203503 90 18 1.0 4.0 0.00 0.00 0.00 63 1013.7
20260903203005 90 89 3.0 4.0 0.00 0.00 0.00 63 1013.8
20260903202503 89 51 0.0 4.0 0.00 0.00 0.00 65 1013.9
20260903202004 90 109 1.0 4.0 0.00 0.00 0.00 67 1014.0
20260903201512 90 94 2.0 7.0 0.00 0.00 0.00 64 1013.9
20260903201005 90 86 2.0 7.0 0.00 0.00 0.00 65 1014.0
20260903200506 90 95 2.0 6.0 0.00 0.00 0.00 65 1014.1
20260903200017 90 55 2.0 6.0 0.00 0.00 0.00 66 1014.3
20260903195506 89 30 3.0 6.0 0.00 0.00 0.00 66 1014.3
20260903195011 89 119 2.0 7.0 0.00 0.00 0.00 67 1014.4
20260903194522 89 93 3.0 7.0 0.00 0.00 0.00 65 1014.4
20260903194011 89 9 2.0 6.0 0.00 0.00 0.00 67 1014.4
20260903193516 89 45 3.0 6.0 0.00 0.00 0.00 64 1014.5
20260903193027 89 19 2.0 5.0 0.00 0.00 0.00 66 1014.6
20260903192504 89 39 2.0 6.0 0.00 0.00 0.00 65 1014.6
20260903192003 89 35 3.0 6.0 0.00 0.00 0.00 64 1014.6
20260903191509 90 30 3.0 7.0 0.00 0.00 0.00 66 1014.7
20260903191002 89 86 0.0 7.0 0.00 0.00 0.00 68 1014.6
20260903190507 89 62 3.0 6.0 0.00 0.00 0.00 65 1014.7
20260903190015 89 342 1.0 8.0 0.00 0.00 0.00 68 1014.8
20260903185506 89 276 0.0 8.0 0.00 0.00 0.00 66 1014.9
20260903185008 89 67 1.0 7.0 0.00 0.00 0.00 68 1014.9
20260903184520 89 168 2.0 3.0 0.00 0.00 0.00 68 1015.0
20260903184011 88 50 1.0 3.0 0.00 0.00 0.00 73 1015.1
20260903183511 88 105 1.0 3.0 0.00 0.00 0.00 70 1015.2
20260903183028 87 48 1.0 4.0 0.00 0.00 0.00 71 1015.3
20260903182514 87 79 2.0 5.0 0.00 0.00 0.00 71 1015.4
20260903182015 87 32 2.0 6.0 0.00 0.00 0.00 70 1015.5
20260903181505 87 340 3.0 7.0 0.00 0.00 0.00 71 1015.6
20260903181004 87 42 2.0 7.0 0.00 0.00 0.00 72 1015.7
20260903180504 87 66 4.0 7.0 0.00 0.00 0.00 70 1015.7
20260903180034 87 83 3.0 8.0 0.00 0.00 0.00 71 1015.7
20260903175503 87 52 3.0 9.0 0.00 0.00 0.00 71 1015.7
20260903175006 87 107 5.0 10.0 0.00 0.00 0.00 70 1015.8
20260903174518 87 142 5.0 13.0 0.00 0.00 0.00 70 1015.8
20260903174007 87 97 6.0 13.0 0.00 0.00 0.00 72 1015.9
20260903173511 87 80 7.0 10.0 0.00 0.00 0.00 72 1015.9
20260903173032 86 67 5.0 10.0 0.00 0.00 0.00 71 1015.9
20260903172512 86 46 5.0 8.0 0.00 0.00 0.00 72 1016.0
20260903172013 86 88 4.0 7.0 0.00 0.00 0.00 72 1015.9
20260903171530 86 16 5.0 9.0 0.00 0.00 0.00 73 1016.0
20260903171014 86 96 6.0 9.0 0.00 0.00 0.00 74 1016.0
20260903170506 86 84 6.0 9.0 0.00 0.00 0.00 73 1016.2
20260903170009 86 66 2.0 8.0 0.00 0.00 0.00 75 1016.2
20260903165504 86 92 3.0 6.0 0.00 0.00 0.00 76 1016.3
20260903165007 86 88 3.0 7.0 0.00 0.00 0.00 77 1016.3
20260903164518 85 83 3.0 8.0 0.00 0.00 0.00 76 1016.3
20260903164012 85 31 3.0 8.0 0.00 0.00 0.00 77 1016.4
20260903163508 85 15 2.0 9.0 0.00 0.00 0.00 75 1016.3
20260903163024 85 23 3.0 9.0 0.00 0.00 0.00 77 1016.4
20260903162511 85 74 2.0 10.0 0.00 0.00 0.00 77 1016.5
20260903162016 85 49 4.0 10.0 0.00 0.00 0.00 77 1016.5
20260903161529 85 40 5.0 9.0 0.00 0.00 0.00 76 1016.6
20260903161014 84 94 5.0 10.0 0.00 0.00 0.00 76 1016.7
20260903160517 85 80 5.0 10.0 0.00 0.00 0.00 78 1016.7
20260903160008 84 54 3.0 10.0 0.00 0.00 0.00 79 1016.7
20260903155504 84 100 7.0 10.0 0.00 0.00 0.00 78 1016.7
20260903155004 84 67 4.0 8.0 0.00 0.00 0.00 80 1016.7
20260903154514 84 90 4.0 8.0 0.00 0.00 0.00 81 1016.7
20260903154012 84 25 3.0 8.0 0.00 0.00 0.00 81 1016.7
20260903153512 83 77 5.0 8.0 0.00 0.00 0.00 81 1016.8
20260903153019 83 67 4.0 9.0 0.00 0.00 0.00 81 1016.7
20260903152512 83 98 6.0 9.0 0.00 0.00 0.00 82 1016.7
20260903152012 83 82 3.0 8.0 0.00 0.00 0.00 83 1016.6
20260903151524 82 27 3.0 7.0 0.00 0.00 0.00 84 1016.6
20260903151013 82 34 4.0 8.0 0.00 0.00 0.00 83 1016.7
20260903150517 82 21 4.0 8.0 0.00 0.00 0.00 83 1016.7
20260903150038 82 38 3.0 7.0 0.00 0.00 0.00 84 1016.7
20260903145517 82 9 2.0 8.0 0.00 0.00 0.00 85 1016.7
20260903145004 82 20 3.0 8.0 0.00 0.00 0.00 85 1016.7
20260903144511 82 64 4.0 8.0 0.00 0.00 0.00 85 1016.6
20260903144004 81 101 3.0 7.0 0.00 0.00 0.00 86 1016.6
20260903143507 81 78 3.0 9.0 0.00 0.00 0.00 86 1016.6
20260903143021 81 85 4.0 9.0 0.00 0.00 0.00 86 1016.6
20260903142510 81 92 4.0 7.0 0.00 0.00 0.00 86 1016.7
20260903142014 80 65 2.0 6.0 0.00 0.00 0.00 87 1016.6
20260903141529 80 89 2.0 6.0 0.00 0.00 0.00 87 1016.6
20260903141013 80 72 2.0 6.0 0.00 0.00 0.00 88 1016.7
20260903140514 80 56 2.0 4.0 0.00 0.00 0.00 88 1016.7
20260903140048 80 60 2.0 4.0 0.00 0.00 0.00 88 1016.7
20260903135514 80 32 1.0 5.0 0.00 0.00 0.00 88 1016.7
20260903135014 79 42 2.0 5.0 0.00 0.00 0.00 89 1016.7
20260903134533 79 60 1.0 5.0 0.00 0.00 0.00 88 1016.7
20260903134006 79 59 1.0 5.0 0.00 0.00 0.00 88 1016.8
20260903133510 79 53 2.0 5.0 0.00 0.00 0.00 88 1016.7
20260903133013 79 30 2.0 7.0 0.00 0.00 0.00 89 1016.7
20260903132512 79 86 4.0 7.0 0.00 0.00 0.00 88 1016.8
20260903132010 79 82 4.0 7.0 0.00 0.00 0.00 88 1016.6
20260903131526 79 48 3.0 5.0 0.00 0.00 0.00 88 1016.6
20260903131011 79 66 3.0 4.0 0.00 0.00 0.00 88 1016.6
20260903130514 79 87 2.0 5.0 0.00 0.00 0.00 88 1016.5
20260903130031 78 71 2.0 5.0 0.00 0.00 0.00 89 1016.5
20260903125514 78 87 3.0 7.0 0.00 0.00 0.00 88 1016.4
20260903125015 78 84 2.0 7.0 0.00 0.00 0.00 89 1016.4
20260903124531 78 90 3.0 4.0 0.00 0.00 0.00 88 1016.3
20260903124015 78 63 1.0 4.0 0.00 0.00 0.00 89 1016.3
20260903123514 78 66 1.0 5.0 0.00 0.00 0.00 90 1016.3
20260903123028 78 84 2.0 5.0 0.00 0.00 0.00 90 1016.1
20260903122510 77 81 1.0 3.0 0.00 0.00 0.00 90 1016.0
20260903122013 77 71 2.0 4.0 0.00 0.00 0.00 91 1015.9
20260903121521 76 38 2.0 4.0 0.00 0.00 0.00 91 1015.9
20260903121015 76 30 2.0 4.0 0.00 0.00 0.00 92 1016.0
20260903120515 76 39 2.0 3.0 0.00 0.00 0.00 92 1016.1
20260903120029 76 46 1.0 2.0 0.00 0.00 0.00 93 1016.0
20260903115516 75 30 0.0 0.0 0.00 0.00 0.00 93 1016.0
20260903115003 75 57 0.0 3.0 0.00 0.00 0.00 93 1015.9
20260903114506 75 75 0.0 3.0 0.00 0.00 0.00 93 1015.9
20260903114003 75 34 1.0 3.0 0.00 0.00 0.00 93 1015.9
20260903113503 74 54 0.0 0.0 0.00 0.00 0.00 93 1015.7
20260903113019 74 54 0.0 0.0 0.00 0.00 0.00 93 1015.7
20260903112503 74 31 0.0 0.0 0.00 0.00 0.00 93 1015.6
20260903112003 75 26 0.0 0.0 0.00 0.00 0.00 93 1015.6
20260903111509 75 9 0.0 0.0 0.00 0.00 0.00 93 1015.6
20260903111002 75 9 0.0 0.0 0.00 0.00 0.00 93 1015.6
20260903110504 75 9 0.0 0.0 0.00 0.00 0.00 93 1015.6
20260903110008 75 9 0.0 0.0 0.00 0.00 0.00 93 1015.6
20260903105503 75 9 0.0 0.0 0.00 0.00 0.00 93 1015.5
20260903105005 75 9 0.0 0.0 0.00 0.00 0.00 93 1015.4
20260903104512 75 9 0.0 0.0 0.00 0.00 0.00 93 1015.4
20260903104004 75 9 0.0 0.0 0.00 0.00 0.00 92 1015.4
20260903103502 75 9 0.0 0.0 0.00 0.00 0.00 92 1015.3
20260903103010 75 9 0.0 0.0 0.00 0.00 0.00 92 1015.3
20260903102502 75 9 0.0 0.0 0.00 0.00 0.00 92 1015.2
20260903102003 75 9 0.0 0.0 0.00 0.00 0.00 92 1015.1
20260903101511 75 15 0.0 0.0 0.00 0.00 0.00 92 1015.0
20260903101004 75 15 0.0 0.0 0.00 0.00 0.00 92 1015.0
20260903100504 75 69 0.0 0.0 0.00 0.00 0.00 92 1015.1
20260903100018 75 69 0.0 0.0 0.00 0.00 0.00 92 1015.1
20260903095503 76 69 0.0 0.0 0.00 0.00 0.00 92 1015.0
20260903095004 76 69 0.0 0.0 0.00 0.00 0.00 92 1015.0
20260903094511 76 69 0.0 0.0 0.00 0.00 0.00 92 1015.0